Flag for Canada Weather past 2 weeks in MD of Lunenburg, Nova Scotia, Canada

Now
31 °F

Chilly.


Feels Like: 27 °F
Forecast: N/A
Wind: 5 mph from North

Location: McNabs Island - AUT

Current Time: Dec 20, 2014 at 7:13:20 PM

Latest Report: Dec 20, 2014 at 6:00 PM


Visibility: N/A

Pressure: 30.25 "Hg

Humidity: 89%

Dew point: 28 °F

Location of MD of LunenburgLocation

Historic Weather in MD of Lunenburg — Graph

°F

MD of Lunenburg temperature yesterday

Maximum temperature yesterday: 37 °F (at 11:00 AM)
Minimum temperature yesterday: 31 °F (at 6:00 PM)
Average temperature yesterday: 34 °F

Past Weeks' High & Low Weather Summary

 TemperatureHumidityPressure
High52 °F (Dec 11, 12:00 PM)100% (Dec 10, 1:00 AM)30.78 "Hg (Dec 10, 1:00 AM)
Low14 °F (Dec 8, 6:00 AM)46% (Dec 5, 5:00 PM)29.38 "Hg (Dec 18, 7:00 AM)
Average36 °F88%30.00 "Hg
* Reported Dec 5 5:00 PM — Dec 20 5:00 PM, MD of Lunenburg, Weather by CustomWeather, © 2014

Note: Actual official high and low records may vary slightly from our data, if they occured in-between our weather recording intervals... More about our weather records

Advertising

MD of Lunenburg weather history for previous 24 hours

 ConditionsComfort  
Time TempWeatherWind HumidityBarometerVisibility
5:00 PM
Dec 20
33 °FChilly.7 mph85%30.24 "HgN/A
4:00 PM36 °FChilly.6 mph78%30.22 "HgN/A
3:00 PM37 °FChilly.9 mph76%30.20 "HgN/A
2:00 PM40 °FChilly.7 mph71%30.19 "HgN/A
1:00 PM38 °FChilly.8 mph76%30.17 "HgN/A
12:00 PM35 °FChilly.9 mph93%30.17 "HgN/A
11:00 AM35 °FChilly.10 mph80%30.19 "HgN/A
10:00 AM34 °FChilly.9 mph83%30.17 "HgN/A
9:00 AM33 °FChilly.9 mph83%30.16 "HgN/A
8:00 AM32 °FChilly.10 mph87%30.13 "HgN/A
7:00 AM31 °FChilly.9 mph94%30.11 "HgN/A
6:00 AM31 °FChilly.9 mph84%30.08 "HgN/A
5:00 AM31 °FChilly.9 mph83%30.06 "HgN/A
4:00 AM31 °FChilly.9 mph80%30.05 "HgN/A
3:00 AM33 °FChilly.8 mph79%30.04 "HgN/A
2:00 AM31 °FChilly.10 mph87%30.01 "HgN/A
1:00 AM32 °FChilly.12 mph83%29.98 "HgN/A
12:00 AM32 °FChilly.8 mph85%29.96 "HgN/A
11:00 PM
Dec 19
32 °FChilly.7 mph86%29.94 "HgN/A
10:00 PM32 °FChilly.7 mph90%29.92 "HgN/A
9:00 PM32 °FChilly.8 mph89%29.90 "HgN/A
8:00 PM32 °FChilly.8 mph88%29.88 "HgN/A
7:00 PM32 °FChilly.8 mph92%29.85 "HgN/A
Weather by CustomWeather, © 2014

See weather overviewHow to use our weather pages